Weather History for Martinsburg, WV

Change the Weather History Date:

Friday, June 8, 2012

  Actual Average Record
Temperature  
Mean Temperature 66 °F 68 °F  
Max Temperature 82 °F 80 °F 99 °F (1984)
Min Temperature 49 °F 57 °F 39 °F (1977)
Degree Days  
Heating Degree Days 0 1  
Month to date heating degree days 14 14  
Since 1 June heating degree days 14 14  
Since 1 July heating degree days 4012 5239  
Cooling Degree Days 1 4  
Month to date cooling degree days 6 30  
Year to date cooling degree days 160 87  
Since 1 June cooling degree days 6 30  
Growing Degree Days 15 (Base 50)    
Moisture  
Dew Point 52 °F    
Average Humidity 67    
Maximum Humidity 100    
Minimum Humidity 33    
Precipitation  
Precipitation 0.00 in 0.13 in 1.26 in (1965)
Month to date precipitation 0.84 1.03  
Year to date precipitation 14.69 16.76  
Sea Level Pressure  
Sea Level Pressure 29.99 in    
Wind  
Wind Speed 4 mph (West)    
Max Wind Speed 17 mph    
Max Gust Speed 23 mph    
Visibility 10 miles    
Events      
T = Trace of Precipitation, MM = Missing Value Source: NWS Daily Summary

Daily Weather History Graph

Daily Weather History Graph

Search for Another Location

Airport:

Trip Planner

Search our weather history database for the weather conditions in past years. The results will help you decide how hot, cold, wet, or windy it might be!

Date:

Astronomy

Jun. 08, 2012 Rise Set
Actual Time 5:44 AM EDT 8:37 PM EDT
Civil Twilight 5:12 AM EDT 9:09 PM EDT
Nautical Twilight 4:32 AM EDT 9:50 PM EDT
Astronomical Twilight 3:45 AM EDT 10:37 PM EDT
Moon No Moon Rise 10:21 AM EDT (6/8)
Length of Visible Light 15h 57m
Length of Day
14h 52m
Waning Gibbous, 77% of the Moon is Illuminated
Jun 8
Waning Gibbous
Jun 11
Last Quarter
Jun 19
New
Jun 26
First Quarter
Jul 3
Full

Hourly Weather History & Observations

Time (EDT) Temp. Dew Point Humidity Pressure Visibility Wind Dir Wind Speed Gust Speed Precip Events Conditions
12:53 AM 60.1 °F 51.1 °F 72% 30.01 in 10.0 mi SW 4.6 mph - N/A   Clear
1:53 AM 55.0 °F 50.0 °F 83% 30.01 in 10.0 mi SE 3.5 mph - N/A   Clear
2:53 AM 53.1 °F 50.0 °F 89% 30.01 in 10.0 mi Calm Calm - N/A   Clear
3:53 AM 52.0 °F 50.0 °F 93% 30.01 in 10.0 mi Calm Calm - N/A   Clear
4:53 AM 51.1 °F 48.9 °F 92% 30.01 in 8.0 mi Calm Calm - N/A   Clear
5:53 AM 48.9 °F 48.0 °F 97% 30.01 in 5.0 mi Calm Calm - N/A   Clear
6:53 AM 54.0 °F 51.1 °F 90% 30.03 in 9.0 mi Calm Calm - N/A   Clear
7:53 AM 59.0 °F 53.1 °F 81% 30.05 in 10.0 mi Calm Calm - N/A   Clear
8:53 AM 64.9 °F 54.0 °F 68% 30.05 in 10.0 mi Calm Calm - N/A   Clear
9:53 AM 71.1 °F 55.0 °F 57% 30.04 in 10.0 mi Variable 3.5 mph - N/A   Clear
10:53 AM 75.0 °F 54.0 °F 48% 30.04 in 10.0 mi North 4.6 mph - N/A   Clear
11:53 AM 78.1 °F 52.0 °F 40% 30.03 in 10.0 mi NW 9.2 mph 17.3 mph N/A   Clear
12:53 PM 80.1 °F 52.0 °F 38% 30.02 in 10.0 mi NW 11.5 mph 17.3 mph N/A   Clear
1:53 PM 79.0 °F 50.0 °F 36% 29.99 in 10.0 mi Variable 5.8 mph - N/A   Scattered Clouds
2:53 PM 81.0 °F 51.1 °F 35% 29.98 in 10.0 mi WNW 10.4 mph - N/A   Clear
3:53 PM 80.1 °F 50.0 °F 35% 29.97 in 10.0 mi NW 4.6 mph - N/A   Mostly Cloudy
4:53 PM 82.0 °F 51.1 °F 34% 29.95 in 10.0 mi Variable 6.9 mph - N/A   Clear
5:53 PM 80.1 °F 48.9 °F 34% 29.94 in 10.0 mi NW 5.8 mph - N/A   Partly Cloudy
6:53 PM 79.0 °F 52.0 °F 39% 29.94 in 10.0 mi WNW 4.6 mph - N/A   Clear
7:53 PM 77.0 °F 50.0 °F 39% 29.94 in 10.0 mi West 3.5 mph - N/A   Clear
8:53 PM 66.9 °F 55.9 °F 68% 29.94 in 10.0 mi Calm Calm - N/A   Clear
9:53 PM 68.0 °F 55.9 °F 65% 29.94 in 10.0 mi SW 4.6 mph - N/A   Partly Cloudy
10:53 PM 66.0 °F 55.0 °F 68% 29.96 in 10.0 mi SW 4.6 mph - N/A   Clear
11:53 PM 66.0 °F 53.1 °F 63% 29.97 in 10.0 mi WSW 4.6 mph - N/A   Clear